Weather History for Tucson Davis Monthan, AZ

Change the Weather History Date:

Thursday, November 14, 2013

  Actual Average Record
Temperature  
Mean Temperature 67 °F -  
Max Temperature 79 °F 73 °F 89 °F (1999)
Min Temperature 55 °F 46 °F 34 °F (1961)
Cooling Degree Days 2    
Growing Degree Days 17 (Base 50)    
Moisture  
Dew Point 39 °F    
Average Humidity 39    
Maximum Humidity 56    
Minimum Humidity 23    
Precipitation  
Precipitation 0.00 in - - ()
Sea Level Pressure  
Sea Level Pressure 29.89 in    
Wind  
Wind Speed 8 mph (SE)    
Max Wind Speed 14 mph    
Max Gust Speed -    
Visibility 10 miles    
Events      
Averages and records for this station are not official NWS values.
T = Trace of Precipitation, MM = Missing Value Source: NWS Daily Summary

Daily Weather History Graph

Daily Weather History Graph

Search for Another Location

Airport:

Trip Planner

Search our weather history database for the weather conditions in past years. The results will help you decide how hot, cold, wet, or windy it might be!

Date:

Astronomy

Nov. 14, 2013 Rise Set
Actual Time 6:51 AM MST 5:23 PM MST
Civil Twilight 6:25 AM MST 5:49 PM MST
Nautical Twilight 5:56 AM MST 6:19 PM MST
Astronomical Twilight 5:27 AM MST 6:48 PM MST
Moon 3:39 PM MST (11/14) 4:00 AM MST (11/14)
Length of Visible Light 11h 23m
Length of Day
10h 31m
Waxing Gibbous, 92% of the Moon is Illuminated
Nov 14
Waxing Gibbous
Nov 17
Full
Nov 25
Last Quarter
Dec 2
New
Dec 9
First Quarter

Hourly Weather History & Observations

Time (MST) Temp. Dew Point Humidity Pressure Visibility Wind Dir Wind Speed Gust Speed Precip Events Conditions
12:58 AM 61.5 °F 41.0 °F 47% 29.93 in 10.0 mi SE 10.4 mph - N/A   Clear
1:58 AM 61.2 °F 41.0 °F 47% 29.94 in 10.0 mi SE 8.1 mph - N/A   Clear
2:58 AM 59.4 °F 40.6 °F 50% 29.93 in 10.0 mi SE 13.8 mph - N/A   Clear
3:58 AM 58.1 °F 40.5 °F 52% 29.94 in 10.0 mi SE 10.4 mph - N/A   Clear
4:58 AM 57.7 °F 40.5 °F 53% 29.92 in 10.0 mi SE 9.2 mph - N/A   Clear
5:58 AM 55.8 °F 40.1 °F 56% 29.94 in 10.0 mi SE 5.8 mph - N/A   Clear
6:58 AM 55.9 °F 40.1 °F 55% 29.96 in 10.0 mi SSE 3.5 mph - N/A   Clear
7:58 AM 58.1 °F 40.6 °F 52% 29.98 in 10.0 mi SSE 4.6 mph - N/A   Clear
8:58 AM 63.1 °F 41.2 °F 45% 29.98 in 10.0 mi SE 5.8 mph - N/A   Clear
9:58 AM 67.8 °F 41.5 °F 38% 29.98 in 10.0 mi NE 4.6 mph - N/A   Unknown
10:58 AM 71.2 °F 42.1 °F 35% 29.95 in 10.0 mi East 3.5 mph - N/A   Clear
11:58 AM 75.0 °F 42.4 °F 31% 29.92 in 10.0 mi Variable 1.2 mph - N/A   Clear
12:58 PM 77.0 °F 41.9 °F 28% 29.87 in 10.0 mi NW 4.6 mph - N/A   Clear
1:58 PM 77.9 °F 39.9 °F 26% 29.86 in 10.0 mi NW 5.8 mph - N/A   Clear
2:58 PM 78.8 °F 38.1 °F 23% 29.84 in 10.0 mi NW 6.9 mph - N/A   Clear
3:58 PM 79.0 °F 39.2 °F 24% 29.84 in 10.0 mi NW 5.8 mph - N/A   Clear
4:58 PM 77.2 °F 39.4 °F 26% 29.81 in 10.0 mi NNW 8.1 mph - N/A   Clear
5:58 PM 73.0 °F 37.6 °F 28% 29.83 in 10.0 mi NW 8.1 mph - N/A   Clear
6:58 PM 70.5 °F 37.2 °F 30% 29.83 in 10.0 mi WNW 4.6 mph - N/A   Clear
7:58 PM 66.0 °F 37.8 °F 35% 29.84 in 10.0 mi WNW 4.6 mph - N/A   Clear
8:58 PM 62.8 °F 37.0 °F 38% 29.83 in 10.0 mi SSE 4.6 mph - N/A   Clear
9:58 PM 61.2 °F 36.3 °F 40% 29.83 in 10.0 mi East 4.6 mph - N/A   Clear
10:58 PM 58.6 °F 35.4 °F 42% 29.82 in 10.0 mi South 6.9 mph - N/A   Clear
11:58 PM 58.8 °F 34.2 °F 40% 29.80 in 10.0 mi ESE 11.5 mph - N/A   Clear